Location: Les Gen�tes
(46.3104°N, 1.5969°E)
Time: 10:43:09
(UTC+00:00)

Cosmos 1758 - Pass Details

Date: 01 June 2020
Orbit: 541 x 561 km, 82.5° (Epoch: 07 July)

Event Time Altitude Azimuth Distance (km) Brightness Sun altitude
Rises 22:17:34 0° 352° (N) 2,745 8.3 -18.2°
Reaches altitude 10° 22:19:45 10° 355° (N) 1,848 7.1 -18.4°
Maximum altitude 22:23:49 72° 80° (E) 590 3.3 -18.6°
Enters shadow 22:24:53 47° 150° (SSE) 749 3.5 -18.7°
